カタログに戻る

STARLINK-31828

運用中通信VLEO
NORAD 59767·PAYLOAD·🇺🇸 United States

打ち上げ May 14, 2024 から Vandenberg Space Force Base

Loading…

次のパス (今後24時間)

TLE

最新Source: CelesTrak SupGP

元期: Sep 15, 2026, 03:15 UTC

1 59767C 24091Q   26258.13590278 -.00051592  00000+0 -16591-2 0  2583
2 59767  53.1585 225.4708 0001509  92.0366 137.6729 15.31725575    19

AllMySatでSTARLINK-31828をリアルタイム追跡

Download on the App Store